Airfield :
LOGIN :

Register | Disclaimer

   EN    FR    IT 

 










Legend :    VFR   Marginal VFR   IFR   Intensive IFR   Very Intensive IFR
Visi :
Ceiling :
>= 8 km
>= 3000ft
5 to 8 km
1000 to 3000 ft
1500m to 5 km
500 to 1000 ft
800 to 1500m
200 to 500 ft
< 800m
< 200 ft
Symbols :   Thunderstorms  Fog  Heavy snow  Heavy precipitations  Wind > 20 kt
SIGMETs :     Misc.  Thunderstorms  Icing  Turbulence  Mountain Waves  Volcanic Ashes






- Airport Elevation : 302 ft


LFPM - Melun Villaroche

CURRENT METAR :
  • 200500Z AUTO 20008KT 9999 FEW012 OVC040 07/06 Q1021

EXPIRED METARs :
  • 200430Z AUTO 19009KT 9999 FEW014 OVC040 07/06 Q1020
  • 200400Z AUTO 20007KT 9999 FEW009 BKN040 OVC046 07/06 Q1021
  • 200330Z AUTO 19008KT 9999 SCT011 OVC047 07/06 Q1021
  • 200300Z AUTO 20008KT 9999 FEW011 OVC048 07/06 Q1021
  • 200230Z AUTO 21008KT 9999 OVC047 07/06 Q1022

Expired Forecast.
ATIS : +33 1 64 14 28 44



MET'MAP, your aeronautical weather chart ! - Copyright ORBIFLY December 2007 - Disclaimer

ORBIFLY MET'MAP TEAM :

Programming & Development : Alexandra Zaïnal
Concept & original design : Baudouin d'Aumeries
Assistance for programming : Marc-Olivier Méhu
Technical & hardware support : Manuel Goepfert

Contact : metmap@orbifly.com




SOURCES & CREDITS :

   NOAA